This is the latest recevied weather packets stored in our database for station/object WB4ROX. If no packets are shown the sender has not sent any weather packets the latest 1 day(s).
| Time | Temp. | Humidity | Pressure | Rain* | Wind** | Luminosity | Snow |
|---|---|---|---|---|---|---|---|
| 1778029588 | 12.22° C | 61% | 1017.6 hPa | 0 mm | 0.89 m/s, 343° | 0 W/m² | - |
| 1778029285 | 12.22° C | 61% | 1017.8 hPa | 0 mm | 0.45 m/s, 68° | 0 W/m² | - |
| 1778028982 | 12.22° C | 61% | 1017.5 hPa | 0 mm | 0.45 m/s, 98° | 0 W/m² | - |
| 1778028678 | 12.22° C | 61% | 1017.6 hPa | 0 mm | 1.34 m/s, 131° | 0 W/m² | - |
| 1778028375 | 12.22° C | 60% | 1017.5 hPa | 0 mm | 0.89 m/s, 277° | 0 W/m² | - |
| 1778028072 | 12.22° C | 60% | 1017.4 hPa | 0 mm | 0.89 m/s, 130° | 0 W/m² | - |
| 1778027768 | 12.22° C | 60% | 1017.1 hPa | 0 mm | 0.89 m/s, 288° | 0 W/m² | - |
| 1778027464 | 12.78° C | 59% | 1017.6 hPa | 0 mm | 0.89 m/s, 204° | 0 W/m² | - |
| 1778027160 | 12.78° C | 59% | 1017.6 hPa | 0 mm | 0.89 m/s, 128° | 1 W/m² | - |
| 1778026857 | 12.78° C | 59% | 1017.4 hPa | 0 mm | 0.45 m/s, 90° | 2 W/m² | - |
| 1778026553 | 12.78° C | 58% | 1017 hPa | 0 mm | 3.13 m/s, 257° | 3 W/m² | - |
| 1778026250 | 12.78° C | 58% | 1017.3 hPa | 0 mm | 2.68 m/s, 345° | 6 W/m² | - |
| 1778025948 | 12.78° C | 57% | 1017.1 hPa | 0 mm | 1.34 m/s, 277° | 8 W/m² | - |
| 1778025645 | 13.33° C | 56% | 1017 hPa | 0 mm | 1.34 m/s, 33° | 11 W/m² | - |
| 1778025343 | 13.33° C | 55% | 1017 hPa | 0 mm | 1.79 m/s, 169° | 14 W/m² | - |
| 1778025040 | 13.89° C | 54% | 1016.8 hPa | 0 mm | 0.89 m/s, 296° | 19 W/m² | - |
| 1778024737 | 14.44° C | 52% | 1017 hPa | 0 mm | 0.89 m/s, 120° | 27 W/m² | - |
| 1778024433 | 14.44° C | 51% | 1017.3 hPa | 0 mm | 0 m/s | 40 W/m² | - |
| 1778024131 | 14.44° C | 51% | 1017.1 hPa | 0 mm | 0 m/s | 35 W/m² | - |
| 1778023828 | 13.89° C | 52% | 1017.1 hPa | 0 mm | 1.34 m/s, 102° | 66 W/m² | - |
| 1778023526 | 13.89° C | 52% | 1017.4 hPa | 0 mm | 1.34 m/s, 337° | 54 W/m² | - |
| 1778023223 | 13.89° C | 51% | 1017.1 hPa | 0 mm | 1.79 m/s, 262° | 68 W/m² | - |
| 1778022920 | 14.44° C | 50% | 1017.4 hPa | 0 mm | 1.34 m/s, 78° | 65 W/m² | - |
| 1778022619 | 15° C | 48% | 1017.3 hPa | 0 mm | 2.24 m/s, 298° | 46 W/m² | - |
| 1778022315 | 15.56° C | 47% | 1017.3 hPa | 0 mm | 1.79 m/s, 84° | 68 W/m² | - |
* Rain latest hour (hover to see other rain measurements)
** Current wind speed in m/s (hover to see current wind gust speed)